• en France
  • Liste des pays
  • À 7 jours
  • Température de l'eau
  • Carte satellitaire
  • Carte météo
  • Widgets météo
  • user-avatar
    Se connecter

    Météo par heure à Chakhansur

    Ce jour, 21 Juillet, Samedi

    Heure Température Précipitation Vent Pression Humidité
    00:00 +44°C° 0 mm 9 m/s 705 mmHg 5%
    01:00 +43°C° 0 mm 9 m/s 705 mmHg 6%
    02:00 +41°C° 0 mm 8 m/s 705 mmHg 6%
    03:00 +40°C° 0 mm 8 m/s 705 mmHg 7%
    04:00 +40°C° 0 mm 8 m/s 705 mmHg 7%
    05:00 +40°C° 0 mm 8 m/s 705 mmHg 7%
    06:00 +40°C° 0 mm 8 m/s 705 mmHg 7%
    07:00 +40°C° 0 mm 8 m/s 706 mmHg 8%
    08:00 +43°C° 0 mm 7 m/s 706 mmHg 7%
    09:00 +45°C° 0 mm 7 m/s 706 mmHg 6%
    10:00 +47°C° 0 mm 6 m/s 707 mmHg 5%
    11:00 +50°C° 0 mm 7 m/s 706 mmHg 4%
    12:00 +51°C° 0 mm 7 m/s 706 mmHg 4%
    13:00 +52°C° 0 mm 8 m/s 706 mmHg 4%
    14:00 +52°C° 0 mm 7 m/s 706 mmHg 3%
    15:00 +52°C° 0 mm 7 m/s 706 mmHg 3%
    16:00 +52°C° 0 mm 7 m/s 705 mmHg 3%
    17:00 +51°C° 0 mm 7 m/s 705 mmHg 3%
    18:00 +49°C° 0 mm 6 m/s 705 mmHg 4%
    19:00 +48°C° 0 mm 6 m/s 705 mmHg 4%
    20:00 +47°C° 0 mm 7 m/s 705 mmHg 4%
    21:00 +46°C° 0 mm 7 m/s 705 mmHg 5%
    22:00 +45°C° 0 mm 8 m/s 705 mmHg 5%
    23:00 +44°C° 0 mm 7 m/s 705 mmHg 5%

    Demain, 22 Juillet, Dimanche

    Heure Température Précipitation Vent Pression Humidité
    00:00 +43°C° 0 mm 7 m/s 705 mmHg 5%
    01:00 +41°C° 0 mm 7 m/s 705 mmHg 6%
    02:00 +40°C° 0 mm 7 m/s 705 mmHg 6%
    03:00 +40°C° 0 mm 6 m/s 705 mmHg 6%
    04:00 +39°C° 0 mm 6 m/s 705 mmHg 6%
    05:00 +39°C° 0 mm 6 m/s 705 mmHg 6%
    06:00 +39°C° 0 mm 6 m/s 705 mmHg 6%
    07:00 +40°C° 0 mm 7 m/s 706 mmHg 7%
    08:00 +43°C° 0 mm 7 m/s 706 mmHg 6%
    09:00 +45°C° 0 mm 7 m/s 706 mmHg 5%
    10:00 +47°C° 0 mm 7 m/s 706 mmHg 5%
    11:00 +48°C° 0 mm 6 m/s 706 mmHg 4%
    12:00 +51°C° 0 mm 6 m/s 706 mmHg 4%
    13:00 +52°C° 0 mm 6 m/s 705 mmHg 3%
    14:00 +53°C° 0 mm 6 m/s 705 mmHg 3%
    15:00 +53°C° 0 mm 5 m/s 705 mmHg 3%
    16:00 +54°C° 0 mm 5 m/s 704 mmHg 3%
    17:00 +52°C° 0 mm 5 m/s 704 mmHg 4%
    18:00 +50°C° 0 mm 5 m/s 704 mmHg 4%
    19:00 +49°C° 0 mm 5 m/s 704 mmHg 4%
    20:00 +48°C° 0 mm 6 m/s 704 mmHg 5%
    21:00 +47°C° 0 mm 7 m/s 704 mmHg 5%
    22:00 +46°C° 0 mm 8 m/s 704 mmHg 6%
    23:00 +45°C° 0 mm 8 m/s 704 mmHg 7%

    Après-demain, 23 Juillet, Lundi

    Heure Température Précipitation Vent Pression Humidité
    00:00 +44°C° 0 mm 8 m/s 704 mmHg 8%
    01:00 +43°C° 0 mm 8 m/s 704 mmHg 9%
    02:00 +41°C° 0 mm 8 m/s 704 mmHg 10%
    03:00 +40°C° 0 mm 7 m/s 704 mmHg 12%
    04:00 +40°C° 0 mm 7 m/s 703 mmHg 13%
    05:00 +40°C° 0 mm 7 m/s 704 mmHg 14%
    06:00 +40°C° 0 mm 7 m/s 704 mmHg 14%
    07:00 +40°C° 0 mm 7 m/s 705 mmHg 15%
    08:00 +42°C° 0 mm 6 m/s 705 mmHg 12%
    09:00 +46°C° 0 mm 5 m/s 705 mmHg 10%
    10:00 +48°C° 0 mm 4 m/s 705 mmHg 7%
    11:00 +49°C° 0 mm 4 m/s 705 mmHg 6%
    12:00 +50°C° 0 mm 4 m/s 705 mmHg 5%
    13:00 +51°C° 0 mm 4 m/s 705 mmHg 4%
    14:00 +52°C° 0 mm 4 m/s 704 mmHg 4%
    15:00 +52°C° 0 mm 4 m/s 704 mmHg 4%
    16:00 +53°C° 0 mm 4 m/s 703 mmHg 4%
    17:00 +51°C° 0 mm 3 m/s 703 mmHg 4%
    18:00 +50°C° 0 mm 3 m/s 703 mmHg 4%
    19:00 +48°C° 0 mm 3 m/s 703 mmHg 4%
    20:00 +47°C° 0 mm 3 m/s 703 mmHg 5%
    21:00 +47°C° 0 mm 4 m/s 703 mmHg 6%
    22:00 +46°C° 0 mm 5 m/s 704 mmHg 7%
    23:00 +45°C° 0 mm 5 m/s 703 mmHg 8%

    24 Juillet, Mardi

    Heure Température Précipitation Vent Pression Humidité
    00:00 +45°C° 0 mm 5 m/s 703 mmHg 9%
    01:00 +43°C° 0 mm 4 m/s 703 mmHg 10%
    02:00 +42°C° 0 mm 5 m/s 703 mmHg 11%
    03:00 +41°C° 0 mm 5 m/s 703 mmHg 11%
    04:00 +41°C° 0 mm 5 m/s 703 mmHg 11%
    05:00 +41°C° 0 mm 5 m/s 704 mmHg 11%
    06:00 +41°C° 0 mm 6 m/s 704 mmHg 11%
    07:00 +42°C° 0 mm 6 m/s 705 mmHg 11%
    08:00 +45°C° 0 mm 6 m/s 705 mmHg 10%
    09:00 +47°C° 0 mm 6 m/s 706 mmHg 8%
    10:00 +49°C° 0 mm 6 m/s 706 mmHg 7%
    11:00 +50°C° 0 mm 5 m/s 706 mmHg 6%
    12:00 +53°C° 0 mm 5 m/s 706 mmHg 5%
    13:00 +53°C° 0 mm 4 m/s 705 mmHg 5%
    14:00 +53°C° 0 mm 4 m/s 705 mmHg 4%
    15:00 +53°C° 0 mm 4 m/s 705 mmHg 4%
    16:00 +55°C° 0 mm 4 m/s 704 mmHg 4%
    17:00 +53°C° 0 mm 5 m/s 704 mmHg 5%
    18:00 +52°C° 0 mm 6 m/s 704 mmHg 6%
    19:00 +51°C° 0 mm 7 m/s 704 mmHg 7%
    20:00 +50°C° 0 mm 8 m/s 705 mmHg 7%
    21:00 +49°C° 0 mm 9 m/s 705 mmHg 8%
    22:00 +48°C° 0 mm 11 m/s 705 mmHg 9%
    23:00 +47°C° 0 mm 11 m/s 705 mmHg 9%

    25 Juillet, Mercredi

    Heure Température Précipitation Vent Pression Humidité
    00:00 +46°C° 0 mm 11 m/s 705 mmHg 10%
    01:00 +44°C° 0 mm 11 m/s 705 mmHg 10%
    02:00 +43°C° 0 mm 11 m/s 705 mmHg 10%
    03:00 +42°C° 0 mm 11 m/s 705 mmHg 10%
    04:00 +41°C° 0 mm 11 m/s 705 mmHg 10%
    05:00 +41°C° 0 mm 11 m/s 705 mmHg 9%
    06:00 +41°C° 0 mm 11 m/s 706 mmHg 9%
    07:00 +41°C° 0 mm 11 m/s 706 mmHg 9%
    08:00 +42°C° 0 mm 11 m/s 706 mmHg 8%
    09:00 +44°C° 0 mm 11 m/s 707 mmHg 7%
    10:00 +47°C° 0 mm 11 m/s 707 mmHg 6%
    11:00 +49°C° 0 mm 10 m/s 707 mmHg 6%
    12:00 +50°C° 0 mm 9 m/s 706 mmHg 5%
    13:00 +52°C° 0 mm 8 m/s 706 mmHg 5%
    14:00 +54°C° 0 mm 9 m/s 706 mmHg 5%
    15:00 +54°C° 0 mm 9 m/s 705 mmHg 5%
    16:00 +54°C° 0 mm 10 m/s 705 mmHg 5%
    17:00 +53°C° 0 mm 10 m/s 705 mmHg 5%
    18:00 +52°C° 0 mm 11 m/s 705 mmHg 5%
    19:00 +49°C° 0 mm 12 m/s 705 mmHg 5%
    20:00 +48°C° 0 mm 12 m/s 705 mmHg 6%
    21:00 +46°C° 0 mm 12 m/s 705 mmHg 6%
    22:00 +45°C° 0 mm 13 m/s 706 mmHg 7%
    23:00 +43°C° 0 mm 13 m/s 705 mmHg 7%

    26 Juillet, Jeudi

    Heure Température Précipitation Vent Pression Humidité
    00:00 +42°C° 0 mm 13 m/s 705 mmHg 7%
    01:00 +41°C° 0 mm 13 m/s 705 mmHg 8%
    02:00 +39°C° 0 mm 13 m/s 705 mmHg 8%
    03:00 +38°C° 0 mm 12 m/s 705 mmHg 9%
    04:00 +37°C° 0 mm 12 m/s 705 mmHg 10%
    05:00 +37°C° 0 mm 12 m/s 705 mmHg 10%
    06:00 +37°C° 0 mm 12 m/s 706 mmHg 10%
    07:00 +37°C° 0 mm 12 m/s 706 mmHg 11%
    08:00 +41°C° 0 mm 11 m/s 706 mmHg 9%
    09:00 +43°C° 0 mm 11 m/s 707 mmHg 8%
    10:00 +45°C° 0 mm 10 m/s 707 mmHg 7%
    11:00 +47°C° 0 mm 10 m/s 707 mmHg 6%
    12:00 +49°C° 0 mm 10 m/s 706 mmHg 5%
    13:00 +51°C° 0 mm 9 m/s 706 mmHg 5%
    14:00 +52°C° 0 mm 10 m/s 706 mmHg 5%
    15:00 +52°C° 0 mm 11 m/s 705 mmHg 5%
    16:00 +52°C° 0 mm 12 m/s 705 mmHg 5%
    17:00 +49°C° 0 mm 12 m/s 705 mmHg 7%
    18:00 +48°C° 0 mm 13 m/s 705 mmHg 8%
    19:00 +46°C° 0 mm 14 m/s 705 mmHg 9%
    20:00 +45°C° 0 mm 14 m/s 705 mmHg 10%
    21:00 +43°C° 0 mm 14 m/s 705 mmHg 10%
    22:00 +41°C° 0 mm 14 m/s 705 mmHg 11%
    23:00 +39°C° 0 mm 13 m/s 705 mmHg 12%
    Voir plus